www.pogodaiklimat.ru

Погода и климат >> Архив погоды >> Мексика >> Arriaga


ПОГОДА в Arriaga

  • Прогноз погоды в Arriaga
  • Монитор погоды в Arriaga
  • Климат города

АРХИВ ПОГОДЫ в Arriaga

Время (UTC), дата Ветер
(напр.,м/с)
 
Видим.   Явления Облачность Т
(С)
Тd
(С)
f
(%)
Тe
(С)
Тes
(С)
Комфортность P
(гПа)
Po
(гПа)
Тmin
(С)
Tmax
(С)
R
(мм)
R24
(мм)
S
(см)
21 16.07 С 1 3000 м 5/1 840 м
[Cu med, cong Ac trans]
+34.4 +26.3 63 +51 +61 опасность
перегрева
1010.3 1004.8
00 17.07 штиль 0 3000 м 3/3 600 м
[Cb cap]
+30.0 +23.1 67 +40 +41 очень
душно
1010.0 1004.6 +26.0 +36.2
03 17.07 штиль 0 1000 м 5/5 840 м
[Sc diur, vesp]
+26.4 +23.9 86 +36 +36 очень
душно
1012.2 1006.7
06 17.07 штиль 0 1000 м 5/5 600 м
[Sc diur, vesp]
+26.2 +24.8 92 +37 +37 очень
душно
1013.3 1007.8 +26.0 +36.2
12 17.07 штиль 0 1000 м 5/5 840 м
[Sc diur, vesp]
+24.6 +23.2 92 +33 +33 очень
душно
1011.0 1005.4 +24.5 +36.2
15 17.07 З 1 3000 м 5/0
[Cs]
+30.2 +23.7 68 +41 +52 опасность
перегрева
1011.5 1006.0
18 17.07 штиль 0 3000 м 5/0
[Cs]
+34.4 +26.0 62 +50 +50 опасность
перегрева
1010.9 1005.4 +24.5 +35.4
21 17.07 С 1 4000 м 3/3 840 м
[Cb cap]
+35.2 +26.6 61 +52 +63 опасность
перегрева
1009.1 1003.6
00 18.07 штиль 0 2000 м 5/5 600 м
[Sc diur, vesp]
+29.6 +24.2 73 +41 +42 опасность
перегрева
1010.2 1004.7 +24.5 +36.4
12 18.07 штиль 0 1000 м 8/1 840 м
[Cb cap As trans]
+27.0 +24.3 85 +38 +38 очень
душно
1011.5 1006.0 +25.7 +36.4
15 18.07 штиль 0 2000 м 8/0 2000 м
[As trans]
+29.0 +25.5 81 +43 +50 опасность
перегрева
1011.9 1006.4
18 18.07 Ю 2 2000 м 6/0
[Cs]
+34.4 +26.8 65 +52 +72 опасность
перегрева
1011.8 1006.3 +25.7 +35.2
21 18.07 штиль 0 2000 м 6/6 840 м
[Sc]
+32.8 +27.3 73 +52 +59 опасность
перегрева
1010.3 1004.8
00 19.07 штиль 0 2000 м слабая морось 8/8 600 м
[Sc diur, vesp]
+33.4 +26.4 67 +50 +50 опасность
перегрева
1010.3 1004.9 0.7
03 19.07 штиль 0 1000 м 8/8 840 м
[Cb cap]
+28.4 +26.6 90 +44 +44 опасность
перегрева
1013.0 1007.6
06 19.07 штиль 0 1000 м слабый дождь 10/1 600 м
[Cb cap As op]
+24.8 +23.7 94 +34 +34 очень
душно
1014.0 1008.5 15
12 19.07 штиль 0 1000 м слабый дождь 10/1 600 м
[Sc diur, vesp As trans]
+24.8 +23.1 90 +33 +33 очень
душно
1013.7 1008.1 1
15 19.07 2000 м 5/0
[Cs]
+28.4 +23.8 76 1014.8 1009.2
18 19.07 С 1 3000 м 5/0
[Cs]
+35.4 +26.8 61 +53 +76 опасность
перегрева
1012.9 1007.4 +24.4 +36.0
21 19.07 С 1 2000 м 5/0 2000 м
[Ac trans]
+36.2 +24.2 50 +48 +59 опасность
перегрева
1010.3 1004.9
00 20.07 Ю 4 2000 м 5/5 840 м
[Sc]
+33.6 +23.3 55 +44 +44 опасность
перегрева
1010.6 1005.1 +24.4 +37.8
09 20.07 С 2 1000 м 4/0
[Ci]
+28.0 +22.0 70 +36 +36 очень
душно
1013.0 1007.4 +26.0 +37.8
12 20.07 С 2 1000 м 4/0
[Ci]
+28.0 +22.0 70 +36 +36 очень
душно
1013.0 1007.4 +26.0 +37.8
15 20.07 С 2 5000 м 4/0
[Ci]
+30.8 +22.8 62 +40 +50 очень
душно
1013.9 1008.4
18 20.07 Ю 2 5000 м 4/0
[Ci]
+34.6 +24.3 55 +47 +67 опасность
перегрева
1012.8 1007.3 +26.0 +35.6
21 20.07 Ю 3 5000 м 4/4 800 м
[Cu hum]
+36.0 +24.2 51 +48 +55 опасность
перегрева
1010.1 1004.7
00 21.07 С 3 5000 м 4/0 2000 м
[Ac trans]
+33.9 +24.4 58 +47 +47 опасность
перегрева
1010.2 1004.8 +26.0 +37.5
03 21.07 С 3 100 м 3/3 800 м
[Cu hum]
+31.2 +24.9 69 +44 +44 опасность
перегрева
1011.2 1005.8
06 21.07 С 3 100 м ясно +29.9 +22.8 66 +40 +40 очень
душно
1011.9 1006.5 +26.0 +37.5
12 21.07 С 2 1000 м 4/0 2000 м
[Ac lent]
+28.6 +22.8 71 +38 +38 очень
душно
1011.8 1006.3 +26.5 +37.5
15 21.07 С 1 5000 м 5/0 2000 м
[Ac lent]
+31.2 +23.3 63 +42 +49 опасность
перегрева
1013.1 1007.5
18 21.07 С 2 5000 м 4/4 800 м
[Cu hum]
+34.2 +25.7 61 +49 +62 опасность
перегрева
1011.6 1006.1 +26.0 +35.9
21 21.07 С 2 5000 м 5/0
[Ci fib]
+36.8 +25.4 52 +51 +63 опасность
перегрева
1009.3 1003.8
00 22.07 С 1 5000 м 5/0 2000 м
[Ac trans]
+34.6 +23.5 53 +46 +46 опасность
перегрева
1009.5 1004.1 +26.0 +38.0
12 22.07 штиль 0 4000 м гроза без осадков 9/5 600 м
[Cb cap Ac As]
+27.2 +24.5 85 +38 +38 очень
душно
1011.5 1006.0 +27.5 +30.0
15 22.07 штиль 0 5000 м осадки на расстоянии 9/0 2000 м
[As op]
+26.2 +24.3 89 +36 +40 очень
душно
1014.8 1009.2
18 22.07 штиль 0 5000 м 9/0
[Cs]
+30.0 +26.0 79 +45 +69 опасность
перегрева
1012.9 1007.3 +27.5 +32.0
21 22.07 штиль 0 5000 м 6/4 800 м
[Cu hum As trans]
+33.0 +26.7 70 +51 +59 опасность
перегрева
1010.5 1005.0
00 23.07 С 1 5000 м 6/0
[Cs]
+30.4 +27.3 84 +49 +49 опасность
перегрева
1010.0 1005.4 +27.5 +34.8
03 23.07 штиль 0 1000 м 4/0
[Cs]
+28.2 +26.6 91 +44 +44 опасность
перегрева
1012.2 1006.7
06 23.07 штиль 0 1000 м ясно +27.2 +25.9 93 +41 +41 опасность
перегрева
1013.3 1007.8 +28.0 +31.4
12 23.07 штиль 0 4000 м 6/3 800 м
[Cb cap Ac lent]
+24.8 +24.0 95 +34 +34 очень
душно
1011.6 1006.0 +25.5 +31.4
15 23.07 штиль 0 5000 м 3/3 800 м
[Cb cap]
+28.2 +25.2 84 +41 +51 опасность
перегрева
1012.4 1006.9
18 23.07 штиль 0 5000 м 6/6 600 м
[Cu hum]
+32.8 +26.2 68 +49 +61 опасность
перегрева
1012.0 1006.5 +27.0 +35.0

 

Местоположение метеостанции Arriaga (Мексика): широта 16.23 долгота -93.90 высота над уровнем моря 48 м.

В архиве по умолчанию представлена погода в Arriaga за последнюю неделю. Архивные данные за месяц целиком и за предыдущие месяцы, начиная с января 2011 года, Вы можете получить, выбрав интересующий диапазон дат из раскрывающегося списка и нажав кнопку "Ввод!".

Внимание! Время в таблицах - всемирное. Для получения местного времени необходимо прибавить поправку, которая в Arriaga равна -6 ч.

Смотрите также архив погоды в соседних городах и на ближайших метеорологических станциях:

Погода в Tuxtla Gutierrez (Мексика) (100 км)
Погода в Salina Cruz (Мексика) (137 км)
Погода в Sn. Cristobal Las C (Мексика) (147 км)
Погода в Comitan (Мексика) (189 км)
Погода в Coatzacoalcos (Мексика) (218 км)
Погода в Villahermosa (Мексика) (220 км)
Погода в Tapachula City (Мексика) (229 км)
Погода в Huehuetenango (Гватемала) (280 км)
Погода в Puerto Angel (Мексика) (283 км)
Погода в Oaxaca (Мексика) (313 км)

Пояснения к столбцам:

Ветер - указаны скорость ветра в м/с - средняя за 10 мин, порывы в срок и между сроками (в фигурных скобках) и направление, откуда дует ветер: С - северный, СВ - северо-восточный, В - восточный, ЮВ - юго-восточный, Ю - южный, ЮЗ - юго-западный, З - западный, СЗ - северо-западный.
Видимость - горизонтальная дальность видимости в метрах или километрах. При видимости от 1 до 10 км при отсутствии осадков обычно наблюдается дымка, при ухудшении видимости до 1 км и менее - туман. В сухую погоду видимость может ухудшаться дымом, пылью или мглою.
Явления - указаны атмосферные явления, наблюдавшиеся в срок или в последний час перед сроком; фигурными скобками обозначены явления, наблюдавшиеся между сроками (за 1-3 часа до срока); квадратными скобками обозначены град или гололедные отложения с указанием их диаметра в мм.
Облачность - указаны через наклонную черту общая и нижняя облачность в баллах и высота нижней границы облаков в метрах; квадратными скобками обозначены формы облаков: Ci - перистые, Cs - перисто-слоистые, Cc - перисто-кучевые, Ac - высококучевые, As - высокослоистые, Sc - слоисто-кучевые, Ns - слоисто-дождевые, Cu - кучевые, Cb - кучево-дождевые. Подробнее классификацию облаков см. в Атласе облаков (PDF).
T - Температура воздуха - температура, измеренная на высоте 2 м над землей.
Td - Температура точки росы - температура, при понижении до которой содержащийся в воздухе водяной пар достигнет насыщения.
f - Относительная влажность воздуха - влажноcть воздуха, измеренная на высоте 2 м над землей.
Te - Эффективная температура - температура, которую ощущает одетый по сезону человек в тени. Характеристика душности погоды. При расчете учитывается влияние влажности воздуха и скорости ветра на теплоощущения человека.
Tes - Эффективная температура на солнце - температура, которую ощущает человек, с поправкой на солнечный нагрев. Характеристика знойности погоды. Зависит от высоты солнца над горизонтом, облачности и скорости ветра. Ночью, в пасмурную погоду, а также при ветре 12 м/с и более поправка равна нулю.
P - Атмосферное давление - приведенное к уровню моря атмосферное давление.
Po - Атмосферное давление - измеренное на уровне метеостанции атмосферное давление.
Tmin - Минимальная температура - минимум температуры воздуха на высоте 2 м над землей.
Tmax - Максимальная температура - максимум температуры воздуха на высоте 2 м над землей.
R - Количество осадков - Количество выпавших осадков за период времени, мм. При наведении курсора мыши на число - период времени, за который выпало указанное количество осадков.
R24 - Количество осадков - Количество выпавших осадков за 24 часа, мм.
S - Снежный покров - Высота снежного покрова, см. При наведении курсора мыши на число - состояние снежного покрова и степень покрытия местности в баллах.